Quesnel,

9:23 PM PST on November 18, 2017 (GMT -0800)
Quesnel

Weather History for CYQZ - September, 2012

Change the Weather History Date:

Saturday, September 22, 2012

  Actual Average Record
Temperature  
Mean Temperature 58 °F -  
Max Temperature 78 °F 52 °F 78 °F (2012)
Min Temperature 37 °F 33 °F 23 °F (2000)
Degree Days  
Heating Degree Days 8    
Growing Degree Days 8 (Base 50)    
Moisture  
Dew Point 44 °F    
Average Humidity 88    
Maximum Humidity 100    
Minimum Humidity 36    
Precipitation  
Precipitation 0.00 in - - ()
Sea Level Pressure  
Sea Level Pressure 30.07 in    
Wind  
Wind Speed 1 mph ()    
Max Wind Speed 7 mph    
Max Gust Speed -    
Visibility 5.0 miles    
Events Fog    
Averages and records for this station are not official NWS values.
T = Trace of Precipitation, MM = Missing Value Source: Averaged Metar Reports

Daily Weather History Graph

Daily Weather History Graph

Search for Another Location

Airport or City:

Trip Planner

Search our weather history database for the weather conditions in past years. The results will help you decide how hot, cold, wet, or windy it might be!

Date:

Astronomy

Sep. 22, 2012 Rise Set
Actual Time 6:57 AM PDT 7:07 PM PDT
Civil Twilight 6:22 AM PDT 7:41 PM PDT
Nautical Twilight 5:41 AM PDT 8:22 PM PDT
Astronomical Twilight 4:58 AM PDT 9:04 PM PDT
Moon 3:08 PM PDT (9/22) 11:30 PM PDT (9/22)
Length of Visible Light 13h 18m
Length of Day
12h 10m
Waxing Crescent, 50% of the Moon is Illuminated
Sep 22
Waxing Crescent
Sep 22
First Quarter
Sep 29
Full
Oct 8
Last Quarter
Oct 15
New

Hourly Weather History & Observations

Time (PDT) Temp. Dew Point Humidity Pressure Visibility Wind Dir Wind Speed Gust Speed Precip Events Conditions
12:00 AM 48.2 °F 46.4 °F 93% 30.05 in 9.0 mi Calm Calm - N/A   Clear
12:05 AM 46.4 °F 44.6 °F 93% 30.06 in 5.0 mi Calm Calm - N/A   Clear
12:16 AM 46.4 °F 46.4 °F 100% 30.06 in 9.0 mi Calm Calm - N/A   Clear
12:31 AM 46.4 °F 44.6 °F 93% 30.06 in 5.0 mi Calm Calm - N/A   Clear
12:39 AM 46.4 °F 46.4 °F 100% 30.06 in 6.0 mi Calm Calm - N/A   Clear
1:00 AM 46.4 °F 46.4 °F 100% 30.05 in 9.0 mi Calm Calm - N/A   Clear
1:39 AM 44.6 °F 42.8 °F 93% 30.06 in 4.0 mi NNW 2.3 mph - N/A   Partly Cloudy
1:40 AM 44.6 °F 42.8 °F 93% 30.06 in 2.2 mi NW 2.3 mph - N/A   Partly Cloudy
1:57 AM 44.6 °F 42.8 °F 93% 30.06 in 4.0 mi Calm Calm - N/A   Clear
1:58 AM 44.6 °F 42.8 °F 93% 30.06 in 7.0 mi Calm Calm - N/A   Clear
2:00 AM 44.6 °F 42.8 °F 93% 30.06 in 9.0 mi Calm Calm - N/A   Clear
2:39 AM 42.8 °F 42.8 °F 100% 30.06 in 9.0 mi Calm Calm - N/A   Partly Cloudy
2:42 AM 42.8 °F 42.8 °F 100% 30.06 in 3.0 mi Calm Calm - N/A   Partly Cloudy
2:43 AM 42.8 °F 42.8 °F 100% 30.06 in 2.0 mi Calm Calm - N/A   Partly Cloudy
3:00 AM 42.8 °F 42.8 °F 100% 30.06 in 1.8 mi Calm Calm - N/A   Partly Cloudy
3:24 AM 44.6 °F 42.8 °F 93% 30.06 in 4.0 mi Calm Calm - N/A   Partly Cloudy
3:26 AM 44.6 °F 42.8 °F 93% 30.06 in 6.0 mi Calm Calm - N/A   Partly Cloudy
3:32 AM 44.6 °F 42.8 °F 93% 30.06 in 5.0 mi Calm Calm - N/A   Partly Cloudy
3:42 AM 44.6 °F 42.8 °F 93% 30.06 in 8.0 mi Calm Calm - N/A   Clear
3:53 AM 41.0 °F 41.0 °F 100% 30.07 in 9.0 mi Calm Calm - N/A   Partly Cloudy
3:54 AM 41.0 °F 41.0 °F 100% 30.07 in 3.0 mi Variable 2.3 mph - N/A   Partly Cloudy
3:58 AM 41.0 °F 41.0 °F 100% 30.07 in 2.5 mi NW 2.3 mph - N/A   Partly Cloudy
4:00 AM 41.0 °F 41.0 °F 100% 30.07 in 1.8 mi Calm Calm - N/A   Scattered Clouds
4:04 AM 41.0 °F 39.2 °F 93% 30.07 in 3.0 mi Calm Calm - N/A   Scattered Clouds
4:16 AM 41.0 °F 39.2 °F 93% 30.07 in 1.5 mi Calm Calm - N/A   Partly Cloudy
4:30 AM 42.8 °F 41.0 °F 93% 30.07 in 0.6 mi Calm Calm - N/A   Mostly Cloudy
4:35 AM 42.8 °F 41.0 °F 93% 30.07 in 6.0 mi Calm Calm - N/A   Mostly Cloudy
4:52 AM 41.0 °F 41.0 °F 100% 30.07 in 5.0 mi Calm Calm - N/A   Overcast
4:53 AM 41.0 °F 41.0 °F 100% 30.07 in 2.5 mi Calm Calm - N/A   Overcast
5:00 AM 42.8 °F 41.0 °F 93% 30.07 in 0.6 mi Calm Calm - N/A   Mist
5:42 AM 41.0 °F 39.2 °F 93% 30.07 in 5.0 mi Calm Calm - N/A   Mostly Cloudy
5:47 AM 41.0 °F 39.2 °F 93% 30.08 in 4.0 mi Calm Calm - N/A   Mostly Cloudy
5:49 AM 39.2 °F 39.2 °F 100% 30.08 in 2.5 mi Calm Calm - N/A   Mostly Cloudy
6:00 AM 39.2 °F 39.2 °F 100% 30.09 in 0.2 mi Calm Calm - N/A Fog Fog
6:17 AM 39.2 °F 39.2 °F 100% 30.09 in 0.8 mi Calm Calm - N/A   Scattered Clouds
6:40 AM 41.0 °F 39.2 °F 93% 30.09 in 0.2 mi Calm Calm - N/A Fog Fog
7:00 AM 37.4 °F 37.4 °F 100% 30.10 in 0.8 mi Calm Calm - N/A   Mist
8:00 AM 42.8 °F 41.0 °F 93% 30.12 in 0.4 mi North 2.3 mph - N/A Fog Fog
8:04 AM 42.8 °F 41.0 °F 93% 30.12 in 3.0 mi North 2.3 mph - N/A   Overcast
8:13 AM 42.8 °F 42.8 °F 100% 30.12 in 1.2 mi NNE 2.3 mph - N/A   Overcast
9:00 AM 44.6 °F 44.6 °F 100% 30.13 in 0.0 mi NW 2.3 mph - N/A Fog Fog
10:00 AM 46.4 °F 46.4 °F 100% 30.12 in 0.4 mi Variable 2.3 mph - N/A Fog Fog
10:20 AM 48.2 °F 46.4 °F 93% 30.12 in 3.0 mi Calm Calm - N/A   Mostly Cloudy
10:23 AM 48.2 °F 48.2 °F 100% 30.12 in 7.0 mi Variable 2.3 mph - N/A   Mostly Cloudy
10:26 AM 48.2 °F 48.2 °F 100% 30.12 in 9.0 mi Variable 2.3 mph - N/A   Scattered Clouds
11:00 AM 53.6 °F 48.2 °F 82% 30.11 in 9.0 mi Variable 2.3 mph - N/A   Clear
12:00 PM 60.8 °F 50.0 °F 68% 30.09 in 9.0 mi Calm Calm - N/A   Clear
1:00 PM 68.0 °F 50.0 °F 52% 30.06 in 9.0 mi Variable 4.6 mph - N/A   Clear
2:00 PM 71.6 °F 51.8 °F 50% 30.03 in 9.0 mi WNW 4.6 mph - N/A   Clear
3:00 PM 75.2 °F 51.8 °F 44% 30.01 in 9.0 mi WSW 4.6 mph - N/A   Clear
4:00 PM 78.8 °F 50.0 °F 36% 29.99 in 9.0 mi NW 6.9 mph - N/A   Clear
5:00 PM 78.8 °F 50.0 °F 36% 29.98 in 9.0 mi NW 5.8 mph - N/A   Clear
6:00 PM 75.2 °F 48.2 °F 38% 29.98 in 9.0 mi North 4.6 mph - N/A   Clear
7:00 PM 68.0 °F 50.0 °F 52% 30.00 in 9.0 mi Calm Calm - N/A   Clear
8:00 PM 59.0 °F 50.0 °F 72% 30.02 in 9.0 mi NNE 3.5 mph - N/A   Clear
10:00 PM 51.8 °F 46.4 °F 82% 30.04 in 9.0 mi Calm Calm - N/A   Clear